sat.trackr.live / text

‹ back to catalog

STARLINK-35707

NORAD 66533 · 2025-265T

PAYLOAD ACTIVE UNKNOWN

§ Identity

Operator
Country
US
Launch date
2025-11-19
Launch site
AFETR
Launch vehicle
Mass (kg)
RCS (m²)

Purposes: comms

External: N2YO · Heavens-Above · Gunter

§ Orbital elements

Epoch: 2026-05-25T04:38:59.035776Z

Period
94.27 min
Inclination
42.9990°
Eccentricity
0.0001459
Mean motion
15.27583889 rev/d
Perigee alt
482.0 km
Apogee alt
484.0 km
Semi-major
6,861.2 km
B*
4.9235e-4
RAAN
205.8877°
Arg perigee
273.3112°
Mean anomaly
86.7573°
Rev number
2,881

§ Raw data

STARLINK-357071 66533U 25265T   26145.19373884  .00013312  00000+0  49235-3 0  99992 66533  42.9990 205.8877 0001459 273.3112  86.7573 15.27583889 28814

JSON: /api/v1/satellites/66533 · /tle

For live sub-satellite position, see the globe view (requires WebGL).

§ Visibility from observer

Set your observer location to see the next 7 days of passes ≥ 10°. The values pass through the URL so the page stays shareable.

No JS? Fill the form by hand. The geolocation button needs JavaScript.